Flag for Nigeria Weather past 2 weeks in Owerri, Nigeria

Now
77 °F

Passing clouds.


Feels Like: 78 °F
Forecast: 74 / 88 °F
Wind: No wind

Location: Malabo/Fernando Poo

Current Time: Feb 28, 2015 at 9:01:18 AM

Latest Report: Feb 28, 2015 at 6:00 AM


Visibility: 5 mi

Pressure: 29.83 "Hg

Humidity: 89%

Dew point: 73 °F

Location of OwerriLocation

Historic Weather in Owerri — Graph

°F

Owerri temperature yesterday

Maximum temperature yesterday: 86 °F (at 1:00 PM)
Minimum temperature yesterday: 75 °F (at 4:00 AM)
Average temperature yesterday: 79 °F

Past Weeks' High & Low Weather Summary

 TemperatureHumidityPressure
High90 °F (Feb 13, 1:00 PM)100% (Feb 18, 11:00 PM)29.98 "Hg (Feb 18, 11:00 PM)
Low72 °F (Feb 19, 4:00 AM)59% (Feb 19, 10:00 AM)29.74 "Hg (Feb 17, 6:00 PM)
Average82 °F81%29.85 "Hg
* Reported Feb 13 9:00 AM — Feb 28 6:00 AM, Owerri, Weather by CustomWeather, © 2015

Note: Actual official high and low records may vary slightly from our data, if they occured in-between our weather recording intervals... More about our weather records

Advertising

Owerri weather history for previous 24 hours

 ConditionsComfort  
Time TempWeatherWind HumidityBarometerVisibility
6:00 AM
Sat, Feb 28
77 °FPassing clouds.No wind89%29.83 "Hg5 mi
5:00 AM77 °FPassing clouds.No wind89%29.83 "Hg5 mi
4:00 AM79 °FPassing clouds.No wind89%29.83 "Hg5 mi
3:00 AM79 °FPassing clouds.No wind89%29.86 "Hg5 mi
2:00 AM79 °FPassing clouds.No wind89%29.86 "Hg5 mi
1:00 AM79 °FPassing clouds.No wind89%29.89 "Hg5 mi
12:00 AM81 °FPassing clouds.No wind84%29.92 "Hg5 mi
11:00 PM
Fri, Feb 27
81 °FPassing clouds.No wind84%29.92 "Hg5 mi
10:00 PM81 °FPassing clouds.No wind84%29.92 "Hg5 mi
9:00 PM81 °FPassing clouds.No wind84%29.92 "Hg5 mi
8:00 PM82 °FPassing clouds.3 mph79%29.89 "Hg5 mi
1:00 PM86 °FScattered clouds.6 mph70%29.86 "HgN/A
12:00 PM84 °FScattered clouds.5 mph79%29.86 "HgN/A
11:00 AM81 °FScattered clouds.5 mph84%29.89 "Hg5 mi
10:00 AM81 °FPassing clouds.6 mph84%29.92 "Hg5 mi
9:00 AM79 °FPassing clouds.No wind89%29.89 "Hg5 mi
Weather by CustomWeather, © 2015

See weather overviewHow to use our weather pages